This demonstration page uses our WeatherBlox Daily Observations layout. Learn more.

Left ArrowRight Arrow

39.08367, -84.50855

Hourly Observations for January 10, 2021

Temp ( °F °C ) Dew Point ( °F °C ) Humidity (%) Winds ( mph kmh ) Pressure ( in mb ) Visibility ( mi km ) Precip ( " mm )
12:53 am 00:53 Clear with Mist and Fog 22 -5.6 19 -7.2 89 89 Calm 30.36 1028 4 6.43736 0 0
1:46 am 01:46 Clear with Mist and Fog 20 -6.7 18 -7.8 92 92 Calm 30.39 1029 2 3.21868 0 0
1:53 am 01:53 Clear with Mist and Fog 21 -6.1 19 -7.2 92 92 Calm 30.37 1028 2.5 4.02335 0 0
2:00 am 02:00 Clear with Mist and Fog 21 -6.1 19 -7.2 92 92 Calm 30.4 1030 5 8.0467 0 0
2:53 am 02:53 Clear with Mist and Fog 21 -6.1 19 -7.2 92 92 Calm 30.39 1029 4 6.43736 0 0
3:53 am 03:53 Clear with Mist and Fog 20 -6.7 17 -8.3 89 89 Calm 30.4 1029 4 6.43736 0 0
4:16 am 04:16 Clear with Mist and Fog 20 -6.7 18 -7.8 92 92 Calm 30.43 1031 2.5 4.02335 0 0
4:40 am 04:40 Clear with Mist and Fog 20 -6.7 18 -7.8 92 92 Calm 30.43 1031 1.75 2.816345 0 0
4:45 am 04:45 Clear with Mist and Fog 20 -6.7 17 -8.3 89 89 Calm 30.43 1031 3 4.82802 0 0
4:53 am 04:53 Clear with Mist and Fog 20 -6.7 18 -7.8 92 92 Calm 30.4 1030 1.75 2.816345 0 0
5:03 am 05:03 Clear with Mist and Fog 20 -6.7 18 -7.8 92 92 Calm 30.43 1031 3 4.82802 0 0
5:53 am 05:53 Clear with Mist and Fog 20 -6.7 17 -8.3 89 89 Calm 30.4 1029 5 8.0467 0 0
6:53 am 06:53 Clear with Mist and Fog 20 -6.7 17 -8.3 89 89 Calm 30.4 1030 4 6.43736 0 0
7:53 am 07:53 Clear with Mist and Fog 19 -7.2 16 -8.9 88 88 Calm 30.42 1030 4 6.43736 0 0
8:53 am 08:53 Partly Cloudy with Mist and Fog 21 -6.1 18 -7.8 88 88 Calm 30.42 1030 4 6.43736 0 0
9:53 am 09:53 Sunny with Mist and Fog 25 -3.9 24 -4.4 96 96 Calm 30.43 1030 4 6.43736 0 0
10:53 am 10:53 Sunny with Mist and Fog 30 -1.1 26 -3.3 85 85 Calm 30.45 1031 6 9.65604 0 0
11:53 am 11:53 Sunny 33 0.6 25 -3.9 72 72 Calm 30.4 1029 8 12.87472 0 0
12:53 pm 12:53 Sunny 36 2.2 23 -5 59 59 NNE 3 6 30.37 1029 10 16.0934 0 0
1:53 pm 13:53 Sunny 37 2.8 23 -5 57 57 Calm 30.36 1028 10 16.0934 0 0
2:53 pm 14:53 Sunny 38 3.3 23 -5 55 55 W 3 6 30.34 1027 10 16.0934 0 0
3:53 pm 15:53 Sunny 38 3.3 24 -4.4 57 57 Calm 30.34 1028 10 16.0934 0 0
4:53 pm 16:53 Sunny 37 2.8 23 -5 57 57 NW 5 7 30.35 1028 10 16.0934 0 0
5:53 pm 17:53 Clear 34 1.1 24 -4.4 67 67 Calm 30.33 1027 10 16.0934 0 0
6:53 pm 18:53 Clear 29 -1.7 23 -5 78 78 Calm 30.34 1028 10 16.0934 0 0
7:53 pm 19:53 Clear 27 -2.8 22 -5.6 81 81 Calm 30.35 1028 9 14.48406 0 0
8:53 pm 20:53 Clear 26 -3.3 22 -5.6 84 84 Calm 30.35 1028 8 12.87472 0 0
9:53 pm 21:53 Clear 30 -1.1 23 -5 75 75 Calm 30.35 1028 9 14.48406 0 0
10:53 pm 22:53 Clear 30 -1.1 23 -5 75 75 Calm 30.36 1028 9 14.48406 0 0
11:53 pm 23:53 Mostly Cloudy 29 -1.7 24 -4.4 82 82 Calm 30.36 1028 9 14.48406 0 0

Powered by AerisWeather